When you browse on this site, cookies collect data to enhance your experience and personalize the content and advertising you see.
Visit our Privacy Policy to learn more. By continuing to use the site, you agree to this use of cookies and data.
  • In Hungary
  • List of Countries
  • For 7 days
  • Water Temperature
  • Satellite Maps
  • Weather Map
  • News
  • Weather Widgets
  • user-avatar
    Login

    Hourly Weather Nago Torbole

    Today, 16 June, Sunday

    Time Temperature Precipitation Wind Pressure Humidity
    00:00 +19°C° 0.1 mm 1 mps 710 mmHg 88%
    01:00 +17°C° 0 mm 2 mps 710 mmHg 82%
    02:00 +17°C° 0 mm 2 mps 710 mmHg 82%
    03:00 +16°C° 0 mm 2 mps 710 mmHg 82%
    04:00 +15°C° 0 mm 2 mps 710 mmHg 82%
    05:00 +17°C° 0 mm 2 mps 710 mmHg 81%
    06:00 +18°C° 0 mm 2 mps 710 mmHg 79%
    07:00 +20°C° 0 mm 2 mps 710 mmHg 77%
    08:00 +23°C° 0 mm 1 mps 711 mmHg 69%
    09:00 +24°C° 0 mm 1 mps 711 mmHg 62%
    10:00 +26°C° 0 mm 1 mps 711 mmHg 54%
    11:00 +27°C° 0 mm 1 mps 711 mmHg 51%
    12:00 +28°C° 0 mm 1 mps 711 mmHg 48%
    13:00 +28°C° 0 mm 2 mps 712 mmHg 45%
    14:00 +28°C° 0.1 mm 2 mps 711 mmHg 47%
    15:00 +27°C° 0.1 mm 2 mps 711 mmHg 49%
    16:00 +27°C° 0.1 mm 2 mps 710 mmHg 50%
    17:00 +26°C° 0.1 mm 1 mps 710 mmHg 59%
    18:00 +25°C° 0.1 mm 1 mps 710 mmHg 67%
    19:00 +22°C° 0.1 mm 0 mps 710 mmHg 75%
    20:00 +22°C° 0.1 mm 1 mps 711 mmHg 77%
    21:00 +20°C° 0.1 mm 2 mps 711 mmHg 78%
    22:00 +18°C° 0.1 mm 2 mps 711 mmHg 79%
    23:00 +18°C° 0 mm 2 mps 711 mmHg 79%

    Tomorrow, 17 June, Monday

    Time Temperature Precipitation Wind Pressure Humidity
    00:00 +17°C° 0 mm 3 mps 711 mmHg 79%
    01:00 +17°C° 0 mm 3 mps 711 mmHg 79%
    02:00 +16°C° 0 mm 3 mps 711 mmHg 79%
    03:00 +16°C° 0 mm 3 mps 711 mmHg 80%
    04:00 +16°C° 0 mm 2 mps 711 mmHg 80%
    05:00 +17°C° 0 mm 2 mps 711 mmHg 77%
    06:00 +18°C° 0 mm 2 mps 711 mmHg 74%
    07:00 +19°C° 0 mm 2 mps 712 mmHg 71%
    08:00 +21°C° 0 mm 2 mps 712 mmHg 65%
    09:00 +24°C° 0 mm 2 mps 712 mmHg 58%
    10:00 +26°C° 0 mm 1 mps 712 mmHg 52%
    11:00 +27°C° 0 mm 2 mps 712 mmHg 50%
    12:00 +27°C° 0 mm 2 mps 712 mmHg 49%
    13:00 +28°C° 0 mm 2 mps 712 mmHg 47%
    14:00 +27°C° 0.3 mm 2 mps 711 mmHg 52%
    15:00 +27°C° 0.3 mm 2 mps 711 mmHg 56%
    16:00 +27°C° 0.3 mm 2 mps 710 mmHg 60%
    17:00 +25°C° 0.4 mm 1 mps 710 mmHg 69%
    18:00 +24°C° 0.4 mm 1 mps 710 mmHg 77%
    19:00 +23°C° 0.4 mm 1 mps 710 mmHg 85%
    20:00 +22°C° 0.4 mm 1 mps 710 mmHg 86%
    21:00 +20°C° 0.4 mm 1 mps 711 mmHg 87%
    22:00 +19°C° 0.4 mm 1 mps 711 mmHg 88%
    23:00 +19°C° 0.1 mm 1 mps 711 mmHg 88%

    Day after tomorrow, 18 June, Tuesday

    Time Temperature Precipitation Wind Pressure Humidity
    00:00 +18°C° 0.1 mm 1 mps 711 mmHg 88%
    01:00 +18°C° 0.1 mm 1 mps 711 mmHg 88%
    02:00 +18°C° 0 mm 1 mps 710 mmHg 88%
    03:00 +16°C° 0 mm 2 mps 710 mmHg 88%
    04:00 +16°C° 0 mm 2 mps 710 mmHg 88%
    05:00 +18°C° 0 mm 1 mps 710 mmHg 86%
    06:00 +20°C° 0 mm 1 mps 711 mmHg 84%
    07:00 +21°C° 0 mm 1 mps 711 mmHg 81%
    08:00 +23°C° 0 mm 1 mps 711 mmHg 73%
    09:00 +25°C° 0 mm 1 mps 711 mmHg 64%
    10:00 +27°C° 0 mm 1 mps 711 mmHg 55%
    11:00 +27°C° 0.2 mm 2 mps 711 mmHg 57%
    12:00 +27°C° 0.2 mm 2 mps 711 mmHg 59%
    13:00 +27°C° 0.2 mm 3 mps 710 mmHg 60%
    14:00 +27°C° 0.3 mm 2 mps 710 mmHg 60%
    15:00 +27°C° 0.3 mm 2 mps 710 mmHg 60%
    16:00 +27°C° 0.3 mm 2 mps 710 mmHg 60%
    17:00 +25°C° 0.2 mm 2 mps 710 mmHg 68%
    18:00 +24°C° 0.2 mm 1 mps 710 mmHg 75%
    19:00 +23°C° 0.2 mm 1 mps 709 mmHg 82%
    20:00 +22°C° 0.1 mm 1 mps 710 mmHg 85%
    21:00 +21°C° 0.1 mm 1 mps 710 mmHg 87%
    22:00 +20°C° 0.1 mm 1 mps 710 mmHg 90%
    23:00 +19°C° 0.4 mm 1 mps 710 mmHg 90%

    19 June, Wednesday

    Time Temperature Precipitation Wind Pressure Humidity
    00:00 +19°C° 0.4 mm 1 mps 709 mmHg 91%
    01:00 +18°C° 0.4 mm 1 mps 709 mmHg 91%
    02:00 +18°C° 0 mm 1 mps 709 mmHg 91%
    03:00 +18°C° 0 mm 1 mps 709 mmHg 91%
    04:00 +16°C° 0 mm 1 mps 709 mmHg 91%
    05:00 +19°C° 0 mm 1 mps 709 mmHg 89%
    06:00 +20°C° 0 mm 1 mps 709 mmHg 87%
    07:00 +21°C° 0 mm 1 mps 709 mmHg 85%
    08:00 +23°C° 0.5 mm 1 mps 709 mmHg 82%
    09:00 +24°C° 0.5 mm 1 mps 709 mmHg 78%
    10:00 +25°C° 0.5 mm 1 mps 710 mmHg 75%
    11:00 +25°C° 1 mm 1 mps 709 mmHg 73%
    12:00 +26°C° 1 mm 2 mps 709 mmHg 71%
    13:00 +26°C° 1 mm 2 mps 709 mmHg 69%
    14:00 +26°C° 0.8 mm 2 mps 709 mmHg 68%
    15:00 +26°C° 0.8 mm 1 mps 708 mmHg 68%
    16:00 +26°C° 0.8 mm 1 mps 708 mmHg 68%
    17:00 +25°C° 0.7 mm 1 mps 708 mmHg 73%
    18:00 +24°C° 0.7 mm 1 mps 708 mmHg 79%
    19:00 +21°C° 0.7 mm 0 mps 708 mmHg 85%
    20:00 +22°C° 0.5 mm 1 mps 708 mmHg 85%
    21:00 +21°C° 0.5 mm 1 mps 709 mmHg 85%
    22:00 +19°C° 0.5 mm 1 mps 709 mmHg 86%
    23:00 +19°C° 0 mm 1 mps 709 mmHg 86%

    20 June, Thursday

    Time Temperature Precipitation Wind Pressure Humidity
    00:00 +18°C° 0 mm 1 mps 708 mmHg 86%
    01:00 +18°C° 0 mm 1 mps 708 mmHg 87%
    02:00 +18°C° 0 mm 1 mps 708 mmHg 87%
    03:00 +16°C° 0 mm 2 mps 708 mmHg 87%
    04:00 +16°C° 0 mm 2 mps 708 mmHg 88%
    05:00 +18°C° 0 mm 1 mps 708 mmHg 86%
    06:00 +20°C° 0 mm 1 mps 709 mmHg 84%
    07:00 +21°C° 0 mm 1 mps 709 mmHg 82%
    08:00 +23°C° 0.1 mm 1 mps 709 mmHg 75%
    09:00 +25°C° 0.1 mm 1 mps 709 mmHg 67%
    10:00 +26°C° 0.1 mm 1 mps 709 mmHg 59%
    11:00 +26°C° 0.3 mm 2 mps 709 mmHg 60%
    12:00 +26°C° 0.3 mm 2 mps 709 mmHg 61%
    13:00 +26°C° 0.3 mm 2 mps 709 mmHg 62%
    14:00 +26°C° 0.3 mm 2 mps 708 mmHg 63%
    15:00 +26°C° 0.3 mm 2 mps 708 mmHg 63%
    16:00 +26°C° 0.3 mm 2 mps 708 mmHg 63%
    17:00 +25°C° 0.1 mm 1 mps 708 mmHg 69%
    18:00 +24°C° 0.1 mm 1 mps 708 mmHg 75%
    19:00 +23°C° 0.1 mm 1 mps 708 mmHg 80%
    20:00 +21°C° 0.1 mm 1 mps 708 mmHg 82%
    21:00 +20°C° 0.1 mm 1 mps 708 mmHg 84%
    22:00 +19°C° 0.1 mm 1 mps 708 mmHg 85%
    23:00 +19°C° 0 mm 1 mps 709 mmHg 85%

    21 June, Friday

    Time Temperature Precipitation Wind Pressure Humidity
    00:00 +18°C° 0 mm 1 mps 709 mmHg 85%
    01:00 +18°C° 0 mm 1 mps 709 mmHg 85%
    02:00 +18°C° 0 mm 1 mps 709 mmHg 86%
    03:00 +16°C° 0 mm 2 mps 708 mmHg 86%
    04:00 +16°C° 0 mm 2 mps 708 mmHg 87%
    05:00 +18°C° 0 mm 1 mps 709 mmHg 84%
    06:00 +20°C° 0 mm 1 mps 709 mmHg 82%
    07:00 +21°C° 0 mm 1 mps 710 mmHg 79%
    08:00 +23°C° 0.3 mm 1 mps 710 mmHg 75%
    09:00 +24°C° 0.3 mm 1 mps 710 mmHg 72%
    10:00 +25°C° 0.3 mm 1 mps 710 mmHg 68%
    11:00 +25°C° 0.6 mm 1 mps 710 mmHg 69%
    12:00 +25°C° 0.6 mm 2 mps 710 mmHg 71%
    13:00 +25°C° 0.6 mm 2 mps 709 mmHg 72%
    14:00 +25°C° 0.6 mm 2 mps 709 mmHg 73%
    15:00 +25°C° 0.6 mm 2 mps 709 mmHg 73%
    16:00 +25°C° 0.6 mm 2 mps 709 mmHg 74%
    17:00 +24°C° 0.7 mm 2 mps 709 mmHg 78%
    18:00 +24°C° 0.7 mm 1 mps 709 mmHg 82%
    19:00 +23°C° 0.7 mm 1 mps 709 mmHg 86%
    20:00 +22°C° 0.6 mm 1 mps 709 mmHg 87%
    21:00 +20°C° 0.6 mm 1 mps 709 mmHg 88%
    22:00 +19°C° 0.6 mm 1 mps 710 mmHg 89%
    23:00 +19°C° 0.8 mm 1 mps 710 mmHg 90%
    Show more